Language: 


Des rapports , des résumés tant et plus, au choix de chacun....


Données statistiques de la station
Quotidien Rapport Février 7, 2018 Unités:  Anglais    Métrique   les deux
« Précédent Jour
Suivant Jour »
Quotidien Hebdomadaire Mensuel Annuel Actuel
  Haut: Bas: Moyen:
Température: TemperatureC °F -3.1 °F -0.5 °F
Pt de rosée: DewpointC °F -9.0 °F -6.2 °F
Humidité: Humidity % 45 % 68 %
Vitesse du vent: WindSpeedKMH mph 0.0 mph 8.4 mph
Rafales: WindSpeedGustKMH mph - -
Vent:- - NE
Pression: PressurehPa in 1014.1 in -
Précipitation: 0.0 in    
Historical Graphs
 
 
Données statistiques pour Février 7, 2018
Heure Température Point de rosée Pression Vent Vitesse du vent Refales Humidité Pluie (taux horaire)
TemperatureC °F DewpointC °F PressurehPa in Calm     Humidity % HourlyPrecipMM in
00:02 -0.7 °F -4.0 °F 1014.1 in NNE 8.7 mph 8.7 mph 81 % 0.0 in
00:07 -0.8 °F -5.0 °F 1014.1 in NNE 8.7 mph 8.7 mph 81 % 0.0 in
00:13 -0.8 °F -5.0 °F 1014.1 in NNE 8.7 mph 8.7 mph 81 % 0.0 in
00:18 -0.9 °F -5.0 °F 1014.1 in ENE 10.5 mph 10.5 mph 80 % 0.0 in
00:23 -0.9 °F -5.0 °F 1014.1 in NNE 11.9 mph 11.9 mph 80 % 0.0 in
00:28 -0.9 °F -5.0 °F 1014.1 in NNE 11.9 mph 11.9 mph 80 % 0.0 in
00:33 -0.9 °F -5.0 °F 1014.1 in NNE 13.0 mph 13.0 mph 81 % 0.0 in
00:38 -0.9 °F -5.0 °F 1014.1 in NNE 13.0 mph 13.0 mph 81 % 0.0 in
00:42 -0.9 °F -5.0 °F 1014.1 in NE 12.6 mph 13.0 mph 81 % 0.0 in
00:48 -0.9 °F -5.0 °F 1014.1 in NE 12.6 mph 13.0 mph 81 % 0.0 in
00:53 -0.9 °F -5.0 °F 1014.1 in NE 12.6 mph 12.6 mph 81 % 0.0 in
00:58 -0.9 °F -5.0 °F 1014.1 in NE 12.6 mph 12.6 mph 81 % 0.0 in
01:03 -0.9 °F -5.0 °F 1014.1 in NE 12.6 mph 12.6 mph 81 % 0.0 in
01:08 -0.9 °F -5.0 °F 1014.1 in NE 12.6 mph 12.6 mph 81 % 0.0 in
01:13 -1.0 °F -5.0 °F 1014.1 in North 12.6 mph 12.6 mph 81 % 0.0 in
01:18 -1.0 °F -5.0 °F 1014.1 in North 12.6 mph 12.6 mph 81 % 0.0 in
01:23 -1.0 °F -4.0 °F 1014.1 in North 12.6 mph 12.6 mph 82 % 0.0 in
01:28 -1.0 °F -4.0 °F 1014.1 in North 12.6 mph 12.6 mph 82 % 0.0 in
01:33 -1.0 °F -4.0 °F 1014.1 in North 12.6 mph 12.6 mph 82 % 0.0 in
01:38 -1.0 °F -4.0 °F 1014.1 in North 12.6 mph 12.6 mph 82 % 0.0 in
01:43 -1.0 °F -4.0 °F 1014.1 in North 12.6 mph 12.6 mph 82 % 0.0 in
01:49 -1.0 °F -4.0 °F 1014.1 in North 12.6 mph 12.6 mph 82 % 0.0 in
01:54 -1.0 °F -4.0 °F 1014.1 in NNE 14.0 mph 14.0 mph 82 % 0.0 in
01:59 -1.0 °F -4.0 °F 1014.1 in NNE 14.0 mph 14.0 mph 82 % 0.0 in
02:04 -1.0 °F -5.0 °F 1014.1 in NNE 11.9 mph 14.0 mph 80 % 0.0 in
02:09 -1.0 °F -5.0 °F 1014.1 in NNE 12.6 mph 14.0 mph 80 % 0.0 in
02:14 -1.0 °F -5.0 °F 1014.1 in NNE 12.6 mph 12.6 mph 79 % 0.0 in
02:19 -1.0 °F -5.0 °F 1014.1 in NNE 12.6 mph 12.6 mph 78 % 0.0 in
02:24 -1.0 °F -5.0 °F 1014.1 in NNE 12.6 mph 12.6 mph 78 % 0.0 in
02:29 -1.0 °F -5.0 °F 1014.1 in NE 13.0 mph 13.0 mph 78 % 0.0 in
02:34 -1.0 °F -5.0 °F 1014.1 in NE 13.0 mph 13.0 mph 78 % 0.0 in
02:39 -1.0 °F -5.0 °F 1014.1 in NE 13.0 mph 13.0 mph 77 % 0.0 in
02:44 -1.0 °F -5.0 °F 1014.1 in NE 13.0 mph 13.0 mph 77 % 0.0 in
02:49 -1.0 °F -5.0 °F 1014.1 in NE 12.6 mph 13.0 mph 77 % 0.0 in
02:54 -1.1 °F -5.0 °F 1014.1 in ENE 12.6 mph 15.4 mph 77 % 0.0 in
02:59 -1.1 °F -5.0 °F 1014.1 in NNE 13.0 mph 15.4 mph 76 % 0.0 in
03:04 -1.1 °F -5.0 °F 1014.1 in NNE 11.9 mph 14.8 mph 76 % 0.0 in
03:09 -1.1 °F -5.0 °F 1014.1 in NE 13.0 mph 14.0 mph 75 % 0.0 in
03:14 -1.1 °F -5.0 °F 1014.1 in NE 13.7 mph 14.0 mph 75 % 0.0 in
03:19 -1.1 °F -6.0 °F 1014.1 in NNE 11.6 mph 18.0 mph 74 % 0.0 in
03:24 -1.2 °F -6.0 °F 1014.1 in NE 9.3 mph 18.0 mph 74 % 0.0 in
03:29 -1.2 °F -6.0 °F 1014.1 in NE 14.8 mph 14.8 mph 73 % 0.0 in
03:34 -1.2 °F -6.0 °F 1014.1 in NE 4.7 mph 14.8 mph 72 % 0.0 in
03:39 -1.3 °F -6.0 °F 1014.1 in NE 12.6 mph 14.8 mph 72 % 0.0 in
03:44 -1.3 °F -6.0 °F 1014.1 in NNE 9.0 mph 13.7 mph 71 % 0.0 in
03:49 -1.4 °F -6.0 °F 1014.1 in NNE 9.3 mph 12.6 mph 71 % 0.0 in
03:55 -1.4 °F -6.0 °F 1014.1 in NE 9.3 mph 12.2 mph 72 % 0.0 in
04:00 -1.5 °F -6.0 °F 1014.1 in NNE 9.0 mph 12.6 mph 72 % 0.0 in
04:05 -1.5 °F -6.0 °F 1014.1 in NNE 10.5 mph 12.6 mph 72 % 0.0 in
04:10 -1.6 °F -6.0 °F 1014.1 in NNE 9.0 mph 12.6 mph 73 % 0.0 in
04:15 -1.7 °F -6.0 °F 1014.1 in NE 1.4 mph 10.5 mph 73 % 0.0 in
04:20 -1.9 °F -6.0 °F 1014.1 in NE 6.4 mph 10.5 mph 74 % 0.0 in
04:25 -1.9 °F -6.0 °F 1014.1 in North 4.7 mph 10.5 mph 75 % 0.0 in
04:30 -2.0 °F -6.0 °F 1014.1 in North 6.9 mph 7.9 mph 76 % 0.0 in
04:35 -2.0 °F -6.0 °F 1014.1 in NNE 6.4 mph 11.9 mph 77 % 0.0 in
04:40 -2.1 °F -6.0 °F 1014.1 in NNE 6.9 mph 11.9 mph 77 % 0.0 in
04:45 -2.1 °F -6.0 °F 1014.1 in NE 6.4 mph 9.7 mph 78 % 0.0 in
04:50 -2.1 °F -6.0 °F 1014.1 in NNE 9.0 mph 9.7 mph 79 % 0.0 in
04:55 -2.2 °F -6.0 °F 1014.1 in NNE 8.7 mph 9.7 mph 80 % 0.0 in
05:00 -2.2 °F -6.0 °F 1014.1 in NNE 9.7 mph 12.6 mph 80 % 0.0 in
05:05 -2.2 °F -6.0 °F 1014.1 in NNW 9.3 mph 12.6 mph 81 % 0.0 in
05:10 -2.2 °F -6.0 °F 1014.1 in North 8.7 mph 12.6 mph 81 % 0.0 in
05:15 -2.1 °F -5.0 °F 1014.1 in North 9.3 mph 12.6 mph 82 % 0.0 in
05:20 -2.1 °F -5.0 °F 1014.1 in NE 10.5 mph 14.0 mph 82 % 0.0 in
05:25 -2.0 °F -5.0 °F 1014.1 in NE 10.5 mph 14.0 mph 82 % 0.0 in
05:30 -1.9 °F -5.0 °F 1014.1 in NE 9.7 mph 14.0 mph 80 % 0.0 in
05:36 -1.9 °F -5.0 °F 1014.1 in NE 12.2 mph 15.4 mph 80 % 0.0 in
05:41 -1.9 °F -6.0 °F 1014.1 in ENE 13.7 mph 15.4 mph 79 % 0.0 in
05:46 -1.9 °F -6.0 °F 1014.1 in NNE 14.0 mph 14.3 mph 78 % 0.0 in
05:51 -1.8 °F -6.0 °F 1014.1 in NNE 12.6 mph 14.3 mph 77 % 0.0 in
05:56 -1.9 °F -6.0 °F 1014.1 in North 11.9 mph 14.0 mph 77 % 0.0 in
06:01 -1.8 °F -6.0 °F 1014.1 in ENE 10.5 mph 14.0 mph 76 % 0.0 in
06:06 -1.9 °F -6.0 °F 1014.1 in NE 13.0 mph 15.8 mph 75 % 0.0 in
06:11 -1.9 °F -6.0 °F 1014.1 in NNE 11.9 mph 15.8 mph 75 % 0.0 in
06:16 -1.9 °F -6.0 °F 1014.1 in NNE 9.0 mph 14.0 mph 75 % 0.0 in
06:21 -2.0 °F -6.0 °F 1014.1 in NE 10.1 mph 14.3 mph 75 % 0.0 in
06:26 -2.0 °F -6.0 °F 1014.1 in ENE 9.3 mph 14.3 mph 75 % 0.0 in
06:31 -2.1 °F -6.0 °F 1014.1 in NE 11.9 mph 14.0 mph 75 % 0.0 in
06:36 -2.1 °F -6.0 °F 1014.1 in NE 6.4 mph 14.3 mph 75 % 0.0 in
06:41 -2.3 °F -7.0 °F 1014.1 in NE 11.1 mph 14.3 mph 75 % 0.0 in
06:46 -2.3 °F -7.0 °F 1014.1 in NNE 13.7 mph 13.7 mph 75 % 0.0 in
06:51 -2.3 °F -7.0 °F 1014.1 in NE 9.7 mph 13.7 mph 75 % 0.0 in
06:56 -2.4 °F -7.0 °F 1014.1 in NE 11.1 mph 11.9 mph 75 % 0.0 in
07:01 -2.4 °F -7.0 °F 1015.1 in NE 9.3 mph 11.9 mph 76 % 0.0 in
07:06 -2.5 °F -7.0 °F 1015.1 in NE 9.0 mph 10.1 mph 76 % 0.0 in
07:11 -2.6 °F -7.0 °F 1015.1 in NNE 7.9 mph 10.1 mph 76 % 0.0 in
07:16 -2.7 °F -7.0 °F 1015.1 in NE 6.9 mph 10.5 mph 77 % 0.0 in
07:21 -2.8 °F -7.0 °F 1015.1 in NE 9.7 mph 10.5 mph 77 % 0.0 in
07:26 -2.8 °F -7.0 °F 1015.1 in NE 4.7 mph 9.7 mph 78 % 0.0 in
07:32 -2.8 °F -7.0 °F 1015.1 in NE 5.0 mph 10.8 mph 78 % 0.0 in
07:37 -2.8 °F -7.0 °F 1015.1 in NNE 2.6 mph 10.8 mph 79 % 0.0 in
07:42 -2.8 °F -7.0 °F 1015.1 in North 4.0 mph 9.3 mph 79 % 0.0 in
07:47 -2.9 °F -7.0 °F 1015.1 in NNE 3.2 mph 8.7 mph 79 % 0.0 in
07:52 -2.9 °F -7.0 °F 1015.1 in North 4.0 mph 7.6 mph 79 % 0.0 in
07:57 -2.9 °F -7.0 °F 1015.1 in North 1.8 mph 7.9 mph 79 % 0.0 in
08:02 -3.0 °F -6.0 °F 1015.1 in North 6.1 mph 9.3 mph 80 % 0.0 in
08:07 -3.0 °F -6.0 °F 1015.1 in NNE 3.2 mph 9.3 mph 80 % 0.0 in
08:12 -3.0 °F -6.0 °F 1015.1 in NNW 7.9 mph 7.9 mph 80 % 0.0 in
08:17 -3.0 °F -6.0 °F 1015.1 in North 6.9 mph 7.9 mph 80 % 0.0 in
08:22 -3.1 °F -6.0 °F 1015.1 in NNE 6.1 mph 9.7 mph 80 % 0.0 in
08:27 -3.1 °F -6.0 °F 1015.1 in Calm   9.7 mph 80 % 0.0 in
08:32 -3.0 °F -6.0 °F 1015.1 in NNE 4.3 mph 8.7 mph 80 % 0.0 in
08:37 -3.0 °F -6.0 °F 1015.1 in North 4.7 mph 8.7 mph 80 % 0.0 in
08:42 -3.0 °F -6.0 °F 1015.1 in NE 4.3 mph 6.9 mph 80 % 0.0 in
08:47 -3.0 °F -6.0 °F 1016.1 in NE 4.3 mph 5.8 mph 80 % 0.0 in
08:52 -2.9 °F -6.0 °F 1016.1 in NNE 4.0 mph 4.3 mph 80 % 0.0 in
08:57 -2.8 °F -6.0 °F 1016.1 in Calm   4.3 mph 81 % 0.0 in
09:02 -2.6 °F -6.0 °F 1016.1 in North 1.8 mph 4.0 mph 82 % 0.0 in
09:07 -2.4 °F -6.0 °F 1016.1 in NNE 7.9 mph 7.9 mph 82 % 0.0 in
09:12 -2.3 °F -6.0 °F 1016.1 in NNE 7.9 mph 7.9 mph 82 % 0.0 in
09:17 -2.2 °F -5.0 °F 1016.1 in NNE 7.9 mph 7.9 mph 82 % 0.0 in
09:22 -2.0 °F -6.0 °F 1016.1 in NNE 7.9 mph 7.9 mph 81 % 0.0 in
09:27 -1.8 °F -5.0 °F 1016.1 in NNE 7.9 mph 7.9 mph 80 % 0.0 in
09:32 -1.5 °F -5.0 °F 1016.8 in NNE 7.9 mph 7.9 mph 80 % 0.0 in
09:37 -1.4 °F -5.0 °F 1016.8 in NNE 7.9 mph 7.9 mph 79 % 0.0 in
09:43 -1.3 °F -5.0 °F 1016.8 in NNE 7.9 mph 7.9 mph 78 % 0.0 in
09:48 -1.3 °F -6.0 °F 1016.8 in NNE 7.9 mph 7.9 mph 76 % 0.0 in
09:53 -1.4 °F -6.0 °F 1016.8 in NNE 7.9 mph 7.9 mph 76 % 0.0 in
09:58 -1.5 °F -6.0 °F 1016.8 in NNE 7.9 mph 7.9 mph 75 % 0.0 in
10:03 -1.2 °F -6.0 °F 1016.8 in NNE 7.9 mph 7.9 mph 76 % 0.0 in
10:08 -1.1 °F -5.0 °F 1016.8 in NNE 7.9 mph 7.9 mph 75 % 0.0 in
10:13 -1.0 °F -5.0 °F 1016.8 in NNE 7.9 mph 7.9 mph 75 % 0.0 in
10:18 -0.6 °F -6.0 °F 1016.8 in NNE 7.9 mph 7.9 mph 73 % 0.0 in
10:23 -0.5 °F -6.0 °F 1016.8 in NNE 7.9 mph 7.9 mph 72 % 0.0 in
10:28 -0.4 °F -5.0 °F 1016.8 in NNE 7.9 mph 7.9 mph 72 % 0.0 in
10:33 -0.2 °F -6.0 °F 1016.1 in NNE 8.7 mph 8.7 mph 70 % 0.0 in
10:38 -0.1 °F -6.0 °F 1016.1 in NNE 8.7 mph 8.7 mph 69 % 0.0 in
10:43 0.1 °F -5.0 °F 1016.1 in NNE 8.7 mph 8.7 mph 68 % 0.0 in
10:48 0.2 °F -5.0 °F 1016.8 in NNE 8.7 mph 8.7 mph 67 % 0.0 in
10:53 0.3 °F -5.0 °F 1016.8 in NNE 8.7 mph 8.7 mph 65 % 0.0 in
10:58 0.4 °F -6.0 °F 1016.8 in NNE 8.7 mph 8.7 mph 62 % 0.0 in
11:03 0.6 °F -6.0 °F 1016.8 in NNE 8.7 mph 8.7 mph 60 % 0.0 in
11:09 0.6 °F -6.0 °F 1016.8 in NNE 8.7 mph 8.7 mph 58 % 0.0 in
11:14 0.7 °F -7.0 °F 1016.8 in NNE 8.7 mph 8.7 mph 57 % 0.0 in
11:19 0.8 °F -7.0 °F 1016.8 in NNE 8.7 mph 8.7 mph 55 % 0.0 in
11:24 0.9 °F -7.0 °F 1016.8 in NNE 8.7 mph 8.7 mph 56 % 0.0 in
11:29 0.9 °F -7.0 °F 1016.8 in NNE 8.7 mph 8.7 mph 55 % 0.0 in
11:34 1.0 °F -7.0 °F 1016.8 in NNE 8.7 mph 8.7 mph 54 % 0.0 in
11:39 1.2 °F -7.0 °F 1016.8 in NNE 8.7 mph 8.7 mph 54 % 0.0 in
11:44 1.2 °F -7.0 °F 1016.8 in NNE 8.7 mph 8.7 mph 52 % 0.0 in
11:49 1.3 °F -7.0 °F 1016.8 in NNE 8.7 mph 8.7 mph 53 % 0.0 in
11:54 1.3 °F -7.0 °F 1016.8 in NNE 8.7 mph 8.7 mph 52 % 0.0 in
11:59 1.4 °F -7.0 °F 1016.8 in NNE 8.7 mph 8.7 mph 52 % 0.0 in
12:04 1.5 °F -7.0 °F 1016.8 in NNE 8.7 mph 8.7 mph 50 % 0.0 in
12:09 1.7 °F -7.0 °F 1016.8 in NNE 8.7 mph 8.7 mph 50 % 0.0 in
12:14 1.7 °F -7.0 °F 1016.8 in NNE 8.7 mph 8.7 mph 50 % 0.0 in
12:19 1.8 °F -8.0 °F 1016.8 in NNE 8.7 mph 8.7 mph 47 % 0.0 in
12:24 1.9 °F -9.0 °F 1016.8 in NNE 8.7 mph 8.7 mph 45 % 0.0 in
12:29 2.0 °F -8.0 °F 1016.8 in NNE 8.7 mph 8.7 mph 46 % 0.0 in
12:34 2.0 °F -8.0 °F 1016.8 in NNE 8.7 mph 8.7 mph 46 % 0.0 in
12:39 2.1 °F -8.0 °F 1016.8 in NNE 8.7 mph 8.7 mph 46 % 0.0 in
12:44 2.1 °F -8.0 °F 1016.8 in NNE 8.7 mph 8.7 mph 47 % 0.0 in
12:49 1.9 °F -8.0 °F 1016.8 in NNE 8.7 mph 8.7 mph 48 % 0.0 in
12:54 1.9 °F -8.0 °F 1016.8 in NNE 8.7 mph 8.7 mph 47 % 0.0 in
12:59 1.6 °F -8.0 °F 1016.8 in NNE 8.7 mph 8.7 mph 47 % 0.0 in
13:04 1.6 °F -8.0 °F 1016.8 in NNE 8.7 mph 8.7 mph 47 % 0.0 in
13:09 1.5 °F -8.0 °F 1016.8 in NNE 8.7 mph 8.7 mph 48 % 0.0 in
13:14 1.5 °F -8.0 °F 1016.8 in NNE 8.7 mph 8.7 mph 48 % 0.0 in
13:19 1.5 °F -8.0 °F 1016.8 in NNE 8.7 mph 8.7 mph 48 % 0.0 in
13:24 1.6 °F -8.0 °F 1016.8 in NNE 8.7 mph 8.7 mph 49 % 0.0 in
13:29 1.6 °F -8.0 °F 1018.2 in NNE 8.7 mph 8.7 mph 47 % 0.0 in
13:34 1.8 °F -8.0 °F 1018.2 in NNE 8.7 mph 8.7 mph 48 % 0.0 in
13:39 1.9 °F -8.0 °F 1018.2 in NNE 8.7 mph 8.7 mph 48 % 0.0 in
13:44 1.8 °F -8.0 °F 1016.8 in NNE 8.7 mph 8.7 mph 48 % 0.0 in
13:49 1.7 °F -8.0 °F 1016.8 in NNE 8.7 mph 8.7 mph 47 % 0.0 in
13:54 1.7 °F -8.0 °F 1016.8 in NNE 8.7 mph 8.7 mph 47 % 0.0 in
13:59 1.7 °F -8.0 °F 1018.2 in NNE 8.7 mph 8.7 mph 47 % 0.0 in
14:04 1.7 °F -8.0 °F 1018.2 in NNE 8.7 mph 8.7 mph 48 % 0.0 in
14:09 1.7 °F -8.0 °F 1018.2 in NNE 8.7 mph 8.7 mph 48 % 0.0 in
14:14 1.7 °F -9.0 °F 1018.2 in NNE 8.7 mph 8.7 mph 46 % 0.0 in
14:19 1.8 °F -9.0 °F 1018.2 in NNE 8.7 mph 8.7 mph 45 % 0.0 in
14:24 1.9 °F -8.0 °F 1018.2 in NNE 8.7 mph 8.7 mph 46 % 0.0 in
14:29 1.9 °F -8.0 °F 1018.2 in NNE 8.7 mph 8.7 mph 48 % 0.0 in
14:34 1.9 °F -8.0 °F 1018.2 in NNE 8.7 mph 8.7 mph 48 % 0.0 in
14:39 1.9 °F -8.0 °F 1018.2 in NNE 8.7 mph 8.7 mph 48 % 0.0 in
14:44 1.9 °F -8.0 °F 1016.8 in NNE 8.7 mph 8.7 mph 48 % 0.0 in
14:50 2.0 °F -7.0 °F 1016.8 in NNE 8.7 mph 8.7 mph 50 % 0.0 in
14:55 2.0 °F -7.0 °F 1016.8 in NNE 8.7 mph 8.7 mph 50 % 0.0 in
15:00 2.0 °F -7.0 °F 1018.2 in NNE 8.7 mph 8.7 mph 50 % 0.0 in
15:05 1.9 °F -7.0 °F 1018.2 in NNE 8.7 mph 8.7 mph 51 % 0.0 in
15:10 2.0 °F -7.0 °F 1018.2 in NNE 8.7 mph 8.7 mph 50 % 0.0 in
15:15 2.0 °F -7.0 °F 1018.2 in NNE 8.7 mph 8.7 mph 50 % 0.0 in
15:20 2.0 °F -7.0 °F 1018.2 in NNE 8.7 mph 8.7 mph 50 % 0.0 in
15:25 2.0 °F -7.0 °F 1018.2 in NNE 8.7 mph 8.7 mph 50 % 0.0 in
15:30 2.0 °F -7.0 °F 1018.2 in NNE 8.7 mph 8.7 mph 50 % 0.0 in
15:35 2.0 °F -7.0 °F 1018.2 in NNE 8.7 mph 8.7 mph 51 % 0.0 in
15:40 1.9 °F -7.0 °F 1018.2 in NNE 8.7 mph 8.7 mph 50 % 0.0 in
15:45 1.9 °F -7.0 °F 1016.8 in NNE 8.7 mph 8.7 mph 50 % 0.0 in
15:50 1.9 °F -7.0 °F 1016.8 in NNE 8.7 mph 8.7 mph 50 % 0.0 in
15:55 1.9 °F -7.0 °F 1016.8 in NNE 8.7 mph 8.7 mph 51 % 0.0 in
16:00 1.8 °F -7.0 °F 1016.8 in NNE 8.7 mph 8.7 mph 51 % 0.0 in
16:05 1.8 °F -7.0 °F 1016.8 in NNE 8.7 mph 8.7 mph 51 % 0.0 in
16:10 1.7 °F -7.0 °F 1016.8 in NNE 8.7 mph 8.7 mph 50 % 0.0 in
16:15 1.7 °F -7.0 °F 1016.8 in NNE 8.7 mph 8.7 mph 51 % 0.0 in
16:20 1.6 °F -7.0 °F 1016.8 in NNE 8.7 mph 8.7 mph 52 % 0.0 in
16:25 1.6 °F -7.0 °F 1016.8 in NNE 8.7 mph 8.7 mph 53 % 0.0 in
16:30 1.6 °F -7.0 °F 1018.2 in NNE 8.7 mph 8.7 mph 53 % 0.0 in
16:35 1.5 °F -7.0 °F 1018.2 in NNE 8.7 mph 8.7 mph 53 % 0.0 in
16:40 1.5 °F -7.0 °F 1018.2 in NNE 8.7 mph 8.7 mph 53 % 0.0 in
16:41 1.5 °F -6.0 °F 1018.2 in NNE 8.7 mph 8.7 mph 54 % 0.0 in
16:46 1.5 °F -6.0 °F 1016.8 in NNE 8.7 mph 8.7 mph 54 % 0.0 in
16:51 1.4 °F -7.0 °F 1016.8 in NNE 8.7 mph 8.7 mph 55 % 0.0 in
16:56 1.3 °F -7.0 °F 1016.8 in NNE 8.7 mph 8.7 mph 55 % 0.0 in
16:57 1.3 °F -7.0 °F 1016.8 in NNE 8.7 mph 8.7 mph 55 % 0.0 in
17:02 1.3 °F -7.0 °F 1018.2 in NNE 8.7 mph 8.7 mph 55 % 0.0 in
17:07 1.2 °F -6.0 °F 1018.2 in NNE 8.7 mph 8.7 mph 56 % 0.0 in
17:12 1.2 °F -6.0 °F 1018.2 in NNE 8.7 mph 8.7 mph 56 % 0.0 in
17:17 1.1 °F -6.0 °F 1016.8 in NNE 8.7 mph 8.7 mph 57 % 0.0 in
17:22 1.1 °F -6.0 °F 1016.8 in NNE 8.7 mph 8.7 mph 57 % 0.0 in
17:27 1.0 °F -6.0 °F 1016.8 in NNE 8.7 mph 8.7 mph 58 % 0.0 in
17:32 1.0 °F -6.0 °F 1018.2 in NNE 8.7 mph 8.7 mph 58 % 0.0 in
17:37 1.0 °F -6.0 °F 1018.2 in NNE 8.7 mph 8.7 mph 58 % 0.0 in
17:42 1.0 °F -6.0 °F 1018.2 in NNE 8.7 mph 8.7 mph 58 % 0.0 in
17:47 0.9 °F -6.0 °F 1018.2 in NNE 8.7 mph 8.7 mph 59 % 0.0 in
17:52 0.9 °F -6.0 °F 1018.2 in NNE 8.7 mph 8.7 mph 59 % 0.0 in
17:57 0.9 °F -6.0 °F 1018.2 in NNE 8.7 mph 8.7 mph 59 % 0.0 in
18:02 0.8 °F -6.0 °F 1018.2 in NNE 8.7 mph 8.7 mph 60 % 0.0 in
18:07 0.8 °F -6.0 °F 1018.2 in NNE 8.7 mph 8.7 mph 60 % 0.0 in
18:12 0.8 °F -6.0 °F 1018.2 in NNE 8.7 mph 8.7 mph 60 % 0.0 in
18:17 0.7 °F -6.0 °F 1018.2 in NNE 8.7 mph 8.7 mph 61 % 0.0 in
18:22 0.7 °F -6.0 °F 1018.2 in NNE 8.7 mph 8.7 mph 61 % 0.0 in
18:27 0.6 °F -6.0 °F 1018.2 in NNE 8.7 mph 8.7 mph 61 % 0.0 in
18:32 0.6 °F -6.0 °F 1018.8 in NNE 8.7 mph 8.7 mph 62 % 0.0 in
18:37 0.6 °F -6.0 °F 1018.8 in NNE 8.7 mph 8.7 mph 62 % 0.0 in
18:42 0.6 °F -6.0 °F 1018.8 in NNE 8.7 mph 8.7 mph 62 % 0.0 in
18:47 0.5 °F -6.0 °F 1018.8 in NNE 8.7 mph 8.7 mph 62 % 0.0 in
18:52 0.5 °F -6.0 °F 1018.8 in NNE 8.7 mph 8.7 mph 62 % 0.0 in
18:57 0.4 °F -6.0 °F 1018.8 in NNE 8.7 mph 8.7 mph 63 % 0.0 in
19:02 0.3 °F -6.0 °F 1018.8 in NNE 8.7 mph 8.7 mph 63 % 0.0 in
19:07 0.2 °F -6.0 °F 1018.8 in NNE 8.7 mph 8.7 mph 64 % 0.0 in
19:12 0.1 °F -6.0 °F 1018.8 in NNE 8.7 mph 8.7 mph 64 % 0.0 in
19:18 0.0 °F -6.0 °F 1018.8 in NNE 8.7 mph 8.7 mph 65 % 0.0 in
19:23 -0.1 °F -6.0 °F 1018.8 in NNE 8.7 mph 8.7 mph 66 % 0.0 in
19:28 -0.2 °F -6.0 °F 1018.8 in NNE 8.7 mph 8.7 mph 66 % 0.0 in
19:33 -0.2 °F -6.0 °F 1018.8 in NNE 8.7 mph 8.7 mph 66 % 0.0 in
19:38 -0.3 °F -6.0 °F 1018.8 in NNE 8.7 mph 8.7 mph 67 % 0.0 in
19:43 -0.4 °F -6.0 °F 1018.8 in NNE 8.7 mph 8.7 mph 67 % 0.0 in
19:48 -0.5 °F -7.0 °F 1018.8 in NNE 8.7 mph 8.7 mph 67 % 0.0 in
19:53 -0.6 °F -7.0 °F 1018.8 in NNE 8.7 mph 8.7 mph 67 % 0.0 in
19:58 -0.6 °F -7.0 °F 1018.8 in NNE 8.7 mph 8.7 mph 67 % 0.0 in
20:03 -0.7 °F -6.0 °F 1018.8 in NNE 8.7 mph 8.7 mph 68 % 0.0 in
20:08 -0.7 °F -6.0 °F 1018.8 in NNE 8.7 mph 8.7 mph 68 % 0.0 in
20:13 -0.8 °F -7.0 °F 1018.8 in NNE 8.7 mph 8.7 mph 68 % 0.0 in
20:18 -0.9 °F -7.0 °F 1018.2 in NNE 8.7 mph 8.7 mph 68 % 0.0 in
20:23 -1.0 °F -7.0 °F 1018.2 in NNE 8.7 mph 8.7 mph 68 % 0.0 in
20:28 -1.1 °F -7.0 °F 1018.2 in NNE 8.7 mph 8.7 mph 68 % 0.0 in
20:33 -1.3 °F -7.0 °F 1018.8 in NNE 8.7 mph 8.7 mph 68 % 0.0 in
20:38 -1.4 °F -7.0 °F 1018.8 in NNE 8.7 mph 8.7 mph 68 % 0.0 in
20:43 -1.5 °F -7.0 °F 1018.8 in NNE 8.7 mph 8.7 mph 69 % 0.0 in
20:48 -1.7 °F -7.0 °F 1018.2 in NNE 8.7 mph 8.7 mph 69 % 0.0 in
20:53 -1.9 °F -7.0 °F 1018.2 in NNE 8.7 mph 8.7 mph 70 % 0.0 in
20:58 -1.9 °F -7.0 °F 1018.8 in NNE 8.7 mph 8.7 mph 71 % 0.0 in
21:03 -2.0 °F -7.0 °F 1018.8 in NNE 8.7 mph 8.7 mph 72 % 0.0 in
21:09 -2.1 °F -7.0 °F 1018.8 in NNE 8.7 mph 8.7 mph 73 % 0.0 in
21:14 -2.2 °F -7.0 °F 1018.8 in NNE 8.7 mph 8.7 mph 73 % 0.0 in
21:19 -2.3 °F -7.0 °F 1018.8 in NNE 8.7 mph 8.7 mph 74 % 0.0 in
21:24 -2.3 °F -7.0 °F 1018.8 in NNE 8.7 mph 8.7 mph 74 % 0.0 in
21:29 -2.3 °F -7.0 °F 1018.8 in NNE 8.7 mph 8.7 mph 75 % 0.0 in
21:34 -2.2 °F -6.0 °F 1018.8 in NNE 8.7 mph 8.7 mph 76 % 0.0 in
21:39 -2.2 °F -6.0 °F 1018.8 in NNE 8.7 mph 8.7 mph 76 % 0.0 in
21:44 -2.2 °F -6.0 °F 1018.8 in NNE 8.7 mph 8.7 mph 77 % 0.0 in
21:49 -2.1 °F -6.0 °F 1018.8 in NNE 8.7 mph 8.7 mph 77 % 0.0 in
21:54 -2.0 °F -6.0 °F 1018.8 in NNE 8.7 mph 8.7 mph 78 % 0.0 in
21:59 -2.0 °F -6.0 °F 1018.8 in NNE 8.7 mph 8.7 mph 78 % 0.0 in
22:04 -1.8 °F -6.0 °F 1018.8 in NNE 8.7 mph 8.7 mph 78 % 0.0 in
22:09 -1.7 °F -6.0 °F 1018.8 in NNE 8.7 mph 8.7 mph 78 % 0.0 in
22:14 -1.6 °F -6.0 °F 1018.8 in NNE 8.7 mph 8.7 mph 78 % 0.0 in
22:19 -1.6 °F -5.0 °F 1018.8 in NNE 8.7 mph 8.7 mph 79 % 0.0 in
22:24 -1.5 °F -5.0 °F 1018.8 in NNE 8.7 mph 8.7 mph 79 % 0.0 in
22:29 -1.5 °F -5.0 °F 1018.8 in NNE 8.7 mph 8.7 mph 80 % 0.0 in
22:34 -1.4 °F -5.0 °F 1018.8 in Calm     80 % 0.0 in
22:39 -1.4 °F -5.0 °F 1018.8 in Calm     80 % 0.0 in
22:44 -1.4 °F -5.0 °F 1018.8 in Calm     80 % 0.0 in
22:50 -1.3 °F -5.0 °F 1018.8 in Calm     80 % 0.0 in
22:55 -1.3 °F -5.0 °F 1018.8 in Calm     81 % 0.0 in
23:00 -1.3 °F -5.0 °F 1018.8 in Calm     81 % 0.0 in
23:05 -1.3 °F -5.0 °F 1018.8 in Calm     82 % 0.0 in
23:10 -1.4 °F -5.0 °F 1018.8 in Calm     82 % 0.0 in
23:15 -1.4 °F -5.0 °F 1018.8 in Calm     82 % 0.0 in
23:20 -1.4 °F -5.0 °F 1018.8 in Calm     82 % 0.0 in
23:25 -1.4 °F -5.0 °F 1018.8 in Calm     82 % 0.0 in
23:30 -1.4 °F -5.0 °F 1018.8 in Calm     81 % 0.0 in
23:35 -1.4 °F -5.0 °F 1018.8 in Calm     81 % 0.0 in
23:40 -1.4 °F -5.0 °F 1018.8 in Calm     81 % 0.0 in
23:45 -1.6 °F -5.0 °F 1018.8 in Calm     81 % 0.0 in
23:50 -1.7 °F -5.0 °F 1018.8 in Calm     81 % 0.0 in
23:55 -1.9 °F -5.0 °F 1018.8 in Calm     81 % 0.0 in
Le Gheer Warneton
Courtoisie de Weather Underground - 2.25 mb

Mise a jour : 18/02/2018 06:24:11
Généré par Cumulus 1.9.4 (1099)